Time,TemperatureF,DewpointF,PressureIn,WindDirection,WindDirectionDegrees,WindSpeedMPH,WindSpeedGustMPH,Humidity,HourlyPrecipIn,Conditions,Clouds,dailyrainin,SoftwareType,DateUTC
2013-07-29 00:07:00,57.1,34.0,29.77,NNW,332,0.0,5.0,42,0.00,,,0.00,weatherlink.com 1.10,2013-07-29 07:07:00,
2013-07-29 00:22:00,57.1,33.0,29.77,NNE,22,0.0,3.0,41,0.00,,,0.00,weatherlink.com 1.10,2013-07-29 07:22:00,
2013-07-29 00:37:00,57.2,33.0,29.77,East,88,3.0,5.0,40,0.00,,,0.00,weatherlink.com 1.10,2013-07-29 07:37:00,
2013-07-29 00:52:00,57.2,32.0,29.78,NE,36,0.0,4.0,39,0.00,,,0.00,weatherlink.com 1.10,2013-07-29 07:52:00,
2013-07-29 01:07:00,56.9,32.0,29.78,ESE,103,0.0,2.0,39,0.00,,,0.00,weatherlink.com 1.10,2013-07-29 08:07:00,
2013-07-29 01:22:00,57.0,32.0,29.77,East,83,0.0,4.0,39,0.00,,,0.00,weatherlink.com 1.10,2013-07-29 08:22:00,
2013-07-29 01:37:00,57.2,32.0,29.77,ENE,78,3.0,5.0,38,0.00,,,0.00,weatherlink.com 1.10,2013-07-29 08:37:00,
2013-07-29 01:52:00,57.1,31.0,29.77,NNE,22,3.0,3.0,37,0.00,,,0.00,weatherlink.com 1.10,2013-07-29 08:52:00,
2013-07-29 02:07:00,57.2,31.0,29.77,NNE,31,4.0,4.0,37,0.00,,,0.00,weatherlink.com 1.10,2013-07-29 09:07:00,
2013-07-29 02:22:00,57.8,31.0,29.77,East,86,1.0,5.0,36,0.00,,,0.00,weatherlink.com 1.10,2013-07-29 09:22:00,
2013-07-29 02:37:00,57.8,31.0,29.77,East,79,0.0,5.0,36,0.00,,,0.00,weatherlink.com 1.10,2013-07-29 09:37:00,
2013-07-29 02:52:00,57.9,31.0,29.77,ENE,78,0.0,4.0,36,0.00,,,0.00,weatherlink.com 1.10,2013-07-29 09:52:00,
2013-07-29 03:07:00,57.8,31.0,29.77,ENE,71,0.0,4.0,36,0.00,,,0.00,weatherlink.com 1.10,2013-07-29 10:07:00,
2013-07-29 03:37:00,56.4,31.0,29.77,ESE,114,0.0,2.0,38,0.00,,,0.00,weatherlink.com 1.10,2013-07-29 10:37:00,
2013-07-29 03:52:00,54.9,31.0,29.78,SE,124,0.0,2.0,40,0.00,,,0.00,weatherlink.com 1.10,2013-07-29 10:52:00,
2013-07-29 04:07:00,55.3,31.0,29.77,ESE,117,0.0,2.0,40,0.00,,,0.00,weatherlink.com 1.10,2013-07-29 11:07:00,
2013-07-29 04:22:00,56.0,31.0,29.77,ESE,120,0.0,2.0,39,0.00,,,0.00,weatherlink.com 1.10,2013-07-29 11:22:00,
2013-07-29 04:37:00,57.3,32.0,29.78,ESE,108,0.0,2.0,39,0.00,,,0.00,weatherlink.com 1.10,2013-07-29 11:37:00,
2013-07-29 04:52:00,57.3,33.0,29.78,ESE,107,0.0,0.0,40,0.00,,,0.00,weatherlink.com 1.10,2013-07-29 11:52:00,
2013-07-29 05:07:00,57.4,34.0,29.77,ESE,107,0.0,0.0,41,0.00,,,0.00,weatherlink.com 1.10,2013-07-29 12:07:00,
2013-07-29 05:22:00,57.6,34.0,29.77,ESE,107,0.0,0.0,41,0.00,,,0.00,weatherlink.com 1.10,2013-07-29 12:22:00,
2013-07-29 05:37:00,55.5,33.0,29.77,ESE,107,0.0,0.0,43,0.00,,,0.00,weatherlink.com 1.10,2013-07-29 12:37:00,
2013-07-29 06:08:00,54.7,34.0,29.78,ESE,118,0.0,0.0,46,0.00,,,0.00,weatherlink.com 1.10,2013-07-29 13:08:00,
2013-07-29 06:38:00,56.7,35.0,29.78,ESE,113,0.0,0.0,44,0.00,,,0.00,weatherlink.com 1.10,2013-07-29 13:38:00,
2013-07-29 06:53:00,56.8,35.0,29.78,ESE,113,0.0,0.0,44,0.00,,,0.00,weatherlink.com 1.10,2013-07-29 13:53:00,
2013-07-29 07:38:00,60.1,38.0,29.79,ESE,113,0.0,0.0,44,0.00,,,0.00,weatherlink.com 1.10,2013-07-29 14:38:00,
2013-07-29 07:53:00,60.7,38.0,29.78,ESE,114,0.0,0.0,43,0.00,,,0.00,weatherlink.com 1.10,2013-07-29 14:53:00,
2013-07-29 08:08:00,61.5,39.0,29.79,ESE,114,0.0,0.0,43,0.00,,,0.00,weatherlink.com 1.10,2013-07-29 15:08:00,
2013-07-29 08:23:00,63.1,36.0,29.78,NW,318,0.0,0.0,37,0.00,,,0.00,weatherlink.com 1.10,2013-07-29 15:23:00,
2013-07-29 08:38:00,63.5,34.0,29.79,NW,314,0.0,1.0,34,0.00,,,0.00,weatherlink.com 1.10,2013-07-29 15:38:00,
2013-07-29 09:23:00,65.1,36.0,29.78,WNW,303,1.0,4.0,34,0.00,,,0.00,weatherlink.com 1.10,2013-07-29 16:23:00,
2013-07-29 09:38:00,66.1,34.0,29.78,WNW,301,0.0,5.0,31,0.00,,,0.00,weatherlink.com 1.10,2013-07-29 16:38:00,
2013-07-29 09:53:00,66.7,33.0,29.77,North,351,0.0,6.0,29,0.00,,,0.00,weatherlink.com 1.10,2013-07-29 16:53:00,
2013-07-29 10:08:00,67.4,33.0,29.77,NW,307,2.0,6.0,28,0.00,,,0.00,weatherlink.com 1.10,2013-07-29 17:08:00,
2013-07-29 10:23:00,67.2,32.0,29.77,WNW,287,2.0,5.0,27,0.00,,,0.00,weatherlink.com 1.10,2013-07-29 17:23:00,
2013-07-29 10:38:00,68.9,33.0,29.77,NNE,15,3.0,4.0,26,0.00,,,0.00,weatherlink.com 1.10,2013-07-29 17:38:00,
2013-07-29 10:53:00,69.6,33.0,29.77,WNW,288,5.0,7.0,26,0.00,,,0.00,weatherlink.com 1.10,2013-07-29 17:53:00,
2013-07-29 11:08:00,69.9,33.0,29.77,West,262,3.0,6.0,26,0.00,,,0.00,weatherlink.com 1.10,2013-07-29 18:08:00,
2013-07-29 12:08:00,73.9,35.0,29.76,NW,326,3.0,9.0,24,0.00,,,0.00,weatherlink.com 1.10,2013-07-29 19:08:00,
2013-07-29 12:24:00,74.3,34.0,29.76,SSW,193,2.0,9.0,23,0.00,,,0.00,weatherlink.com 1.10,2013-07-29 19:24:00,
2013-07-29 12:39:00,74.6,34.0,29.76,NW,307,5.0,11.0,23,0.00,,,0.00,weatherlink.com 1.10,2013-07-29 19:39:00,
2013-07-29 12:54:00,75.6,34.0,29.75,North,352,2.0,7.0,22,0.00,,,0.00,weatherlink.com 1.10,2013-07-29 19:54:00,
2013-07-29 13:09:00,75.8,34.0,29.75,NW,320,3.0,7.0,22,0.00,,,0.00,weatherlink.com 1.10,2013-07-29 20:09:00,
2013-07-29 13:24:00,76.7,33.0,29.75,North,7,5.0,7.0,20,0.00,,,0.00,weatherlink.com 1.10,2013-07-29 20:24:00,
2013-07-29 13:39:00,77.2,30.0,29.75,WNW,294,3.0,8.0,18,0.00,,,0.00,weatherlink.com 1.10,2013-07-29 20:39:00,
2013-07-29 13:54:00,77.5,28.0,29.75,SW,236,0.0,8.0,16,0.00,,,0.00,weatherlink.com 1.10,2013-07-29 20:54:00,
2013-07-29 14:24:00,79.3,29.0,29.74,West,266,5.0,12.0,16,0.00,,,0.00,weatherlink.com 1.10,2013-07-29 21:24:00,
2013-07-29 14:39:00,78.6,32.0,29.74,NW,314,3.0,9.0,18,0.00,,,0.00,weatherlink.com 1.10,2013-07-29 21:39:00,
2013-07-29 14:54:00,78.6,30.0,29.74,NW,309,3.0,6.0,17,0.00,,,0.00,weatherlink.com 1.10,2013-07-29 21:54:00,
2013-07-29 15:09:00,78.1,31.0,29.74,NW,309,5.0,9.0,18,0.00,,,0.00,weatherlink.com 1.10,2013-07-29 22:09:00,
2013-07-29 15:24:00,77.7,31.0,29.75,WNW,301,6.0,9.0,18,0.00,,,0.00,weatherlink.com 1.10,2013-07-29 22:24:00,
2013-07-29 15:39:00,77.3,32.0,29.75,NW,325,2.0,7.0,19,0.00,,,0.00,weatherlink.com 1.10,2013-07-29 22:39:00,
2013-07-29 16:09:00,79.0,32.0,29.74,West,271,2.0,9.0,18,0.00,,,0.00,weatherlink.com 1.10,2013-07-29 23:09:00,
2013-07-29 16:24:00,78.4,33.0,29.74,NW,316,3.0,8.0,19,0.00,,,0.00,weatherlink.com 1.10,2013-07-29 23:24:00,
2013-07-29 17:24:00,78.3,31.0,29.73,NNW,338,3.0,10.0,18,0.00,,,0.00,weatherlink.com 1.10,2013-07-30 00:24:00,
2013-07-29 17:54:00,77.5,32.0,29.73,NNW,338,4.0,8.0,19,0.00,,,0.00,weatherlink.com 1.10,2013-07-30 00:54:00,
2013-07-29 18:09:00,78.0,32.0,29.73,NW,321,2.0,7.0,19,0.00,,,0.00,weatherlink.com 1.10,2013-07-30 01:09:00,
2013-07-29 18:24:00,77.7,32.0,29.72,NW,318,3.0,6.0,19,0.00,,,0.00,weatherlink.com 1.10,2013-07-30 01:24:00,
2013-07-29 18:39:00,77.5,31.0,29.72,NNW,332,1.0,10.0,18,0.00,,,0.00,weatherlink.com 1.10,2013-07-30 01:39:00,
2013-07-29 19:09:00,76.3,30.0,29.73,NNW,328,3.0,9.0,18,0.00,,,0.00,weatherlink.com 1.10,2013-07-30 02:09:00,
2013-07-29 19:24:00,76.9,30.0,29.74,NNW,335,4.0,11.0,18,0.00,,,0.00,weatherlink.com 1.10,2013-07-30 02:24:00,
2013-07-29 19:39:00,76.3,30.0,29.74,NNW,328,3.0,14.0,18,0.00,,,0.00,weatherlink.com 1.10,2013-07-30 02:39:00,
2013-07-29 19:54:00,74.9,31.0,29.76,NW,308,8.0,10.0,20,0.00,,,0.00,weatherlink.com 1.10,2013-07-30 02:54:00,
2013-07-29 20:09:00,73.2,32.0,29.76,North,350,5.0,12.0,22,0.00,,,0.00,weatherlink.com 1.10,2013-07-30 03:09:00,
2013-07-29 20:24:00,72.2,33.0,29.77,NW,314,7.0,8.0,24,0.00,,,0.00,weatherlink.com 1.10,2013-07-30 03:24:00,
2013-07-29 20:39:00,71.3,33.0,29.77,WNW,293,3.0,7.0,24,0.00,,,0.00,weatherlink.com 1.10,2013-07-30 03:39:00,
2013-07-29 21:09:00,68.7,43.0,29.79,WNW,296,2.0,5.0,40,0.00,,,0.00,weatherlink.com 1.10,2013-07-30 04:09:00,
2013-07-29 21:24:00,67.5,43.0,29.80,WNW,298,0.0,3.0,42,0.00,,,0.00,weatherlink.com 1.10,2013-07-30 04:24:00,
2013-07-29 21:39:00,66.7,43.0,29.80,WNW,300,2.0,4.0,43,0.00,,,0.00,weatherlink.com 1.10,2013-07-30 04:39:00,
2013-07-29 21:54:00,65.8,43.0,29.81,NNW,338,0.0,5.0,43,0.00,,,0.00,weatherlink.com 1.10,2013-07-30 04:54:00,
2013-07-29 22:09:00,65.1,42.0,29.81,NNW,332,1.0,4.0,43,0.00,,,0.00,weatherlink.com 1.10,2013-07-30 05:09:00,
2013-07-29 22:24:00,64.5,42.0,29.81,NNW,330,0.0,6.0,44,0.00,,,0.00,weatherlink.com 1.10,2013-07-30 05:24:00,
2013-07-29 22:39:00,63.9,42.0,29.82,NW,321,0.0,4.0,45,0.00,,,0.00,weatherlink.com 1.10,2013-07-30 05:39:00,
2013-07-29 22:54:00,63.1,42.0,29.82,North,359,0.0,2.0,46,0.00,,,0.00,weatherlink.com 1.10,2013-07-30 05:54:00,
2013-07-29 23:10:00,62.6,42.0,29.82,NNE,25,0.0,2.0,47,0.00,,,0.00,weatherlink.com 1.10,2013-07-30 06:10:00,
2013-07-29 23:25:00,62.0,42.0,29.82,North,4,0.0,0.0,48,0.00,,,0.00,weatherlink.com 1.10,2013-07-30 06:25:00,
2013-07-29 23:40:00,61.1,42.0,29.83,SE,141,0.0,1.0,50,0.00,,,0.00,weatherlink.com 1.10,2013-07-30 06:40:00,
2013-07-29 23:55:00,60.5,43.0,29.83,SE,141,0.0,0.0,52,0.00,,,0.00,weatherlink.com 1.10,2013-07-30 06:55:00,